User: anonymous
Location: Caltech
(34.1382°N, 118.1253°W)
Time: 23:12:53
(UTC-07:00)
Language:

AO-27 - Orbit

View from above orbital plane
View from above orbital plane
View from above satellite
View from above satellite

Ground track
Ground track

The orbit data is extracted from the following two-line orbital elements,

1 22825U 93061C   14112.90409007  .00000248  00000-0  11405-3 0  6485
2 22825 098.6579 059.2933 0009665 100.4691 321.5379 14.29704215 72883
Epoch (UTC): 22 April 2014 21:41:53
Eccentricity: 0.0009665
inclination: 98.6579°
perigee height: 786 km
apogee height: 799 km
right ascension of ascending node: 59.2933°
argument of perigee: 100.4691°
revolutions per day: 14.29704215
mean anomaly at epoch: 321.5379°
orbit number at epoch: 7288

The dashed part of the orbit path shows where the satellite is in the earth's shadow,  

DLR